Location: Evergreen Manor
(41.4083°N, 81.4939°W)
Time: 13:34:35
(UTC+00:00)

Cosmos 2227 - Pass Details

Date: 11 December 2019
Orbit: 834 x 862 km, 71.0° (Epoch: 24 January)

Event Time Altitude Azimuth Distance (km) Brightness Sun altitude
Exits shadow 10:09:48 69° 200° (SSW) 921 4.2 -27.6°
Maximum altitude 10:10:34 89° 109° (ESE) 867 4.1 -27.5°
Drops below altitude 10° 10:16:22 10° 24° (NNE) 2,508 6.8 -26.4°
Sets 10:18:50 0° 25° (NNE) 3,448 7.6 -26.0°
